GP1970 Weather Reports


time (UTC)temp
F
wind
direction
speed
knots
gust
knots
rain 1hr
in
rain 24hr
in
rain mn
in
humidity
%
barometer
mb
20260505211532 70 309 11.3 16.5 0.00 0.38 0.38 67 995.8
20260505210537 72 228 9.6 13.0 0.01 0.38 0.38 67 996.0
20260505205541 72 237 9.6 18.2 0.01 0.38 0.38 67 995.4
20260505204524 73 248 11.3 17.4 0.01 0.38 0.38 68 995.9
20260505203528 73 259 11.3 19.1 0.01 0.38 0.38 70 995.4
20260505202525 73 206 11.3 17.4 0.01 0.38 0.38 71 995.2
20260505201517 73 209 8.7 13.9 0.01 0.38 0.38 73 995.7
20260505200521 72 214 8.7 13.0 0.00 0.37 0.37 76 995.8
20260505195519 70 219 7.0 11.3 0.00 0.37 0.37 78 996.0
20260505194516 69 205 6.1 13.0 0.00 0.37 0.37 80 996.5
20260505193532 69 223 5.2 8.7 0.00 0.37 0.37 81 996.5
20260505192517 70 219 5.2 9.6 0.00 0.37 0.37 82 996.5
20260505191521 69 215 5.2 8.7 0.00 0.37 0.37 83 996.5
20260505190545 67 188 3.5 6.1 0.00 0.37 0.37 86 996.5
20260505185529 64 170 3.5 5.2 0.00 0.37 0.37 89 997.1
20260505184532 63 288 0.9 1.7 0.01 0.37 0.37 90 997.1
20260505183518 61 124 0.0 1.7 0.01 0.37 0.37 91 997.2
20260505182522 60 135 0.0 1.7 0.04 0.37 0.37 91 997.4
20260505181525 59 123 1.7 3.5 0.09 0.37 0.37 91 997.5
20260505180529 59 148 0.0 1.7 0.10 0.37 0.37 91 997.9
20260505175533 58 145 1.7 3.5 0.10 0.37 0.37 90 998.2
20260505174538 59 227 1.7 2.6 0.09 0.36 0.36 88 997.9
20260505173522 59 259 1.7 3.5 0.09 0.36 0.36 87 997.8
20260505172525 59 260 2.6 4.3 0.11 0.33 0.33 86 997.7
20260505171529 60 297 2.6 4.3 0.21 0.28 0.28 84 997.5
20260505170532 60 282 2.6 3.5 0.20 0.27 0.27 83 997.4
20260505165518 61 307 2.6 2.6 0.20 0.27 0.27 82 997.6
20260505164522 61 261 2.6 4.3 0.20 0.27 0.27 80 998.1
20260505163525 62 241 3.5 5.2 0.20 0.27 0.27 78 998.1
20260505162529 64 237 4.3 7.8 0.15 0.22 0.22 73 998.2
20260505161527 64 189 4.3 6.1 0.00 0.07 0.07 73 998.0
20260505160518 64 186 2.6 6.1 0.00 0.07 0.07 73 998.3
20260505152515 66 226 7.0 11.3 0.00 0.09 0.07 71 998.2
20260505151518 67 168 7.8 11.3 0.00 0.11 0.07 70 998.7
20260505150542 0 0.0 0.0 0.00 0.12 0.07 998.3
20260505140606 63 62 2.6 4.3 0.00 0.26 0.07 72 998.7
20260505124519 54 72 1.7 3.5 0.00 0.33 0.07 83 999.6
20260505123523 53 86 3.5 5.2 0.00 0.33 0.07 84 999.4
20260505122526 53 91 2.6 4.3 0.00 0.33 0.07 84 999.3
20260505121530 53 55 3.5 5.2 0.00 0.33 0.07 85 999.3
20260505120535 53 64 2.6 4.3 0.00 0.33 0.07 86 1000.3
20260505115519 51 84 2.6 4.3 0.00 0.33 0.07 87 1000.2
20260505114523 50 87 2.6 4.3 0.00 0.33 0.07 88 1000.2
20260505113520 50 88 3.5 5.2 0.00 0.33 0.07 88 1000.3
20260505112518 51 42 2.6 4.3 0.07 0.33 0.07 88 1000.3
20260505111515 49 102 2.6 3.5 0.07 0.33 0.07 90 999.9
20260505110519 48 86 2.6 5.2 0.07 0.33 0.07 91 999.8
20260505101519 41 123 1.7 3.5 0.00 0.26 0.00 97 999.9
20260505100603 39 72 1.7 2.6 0.00 0.26 0.00 96 1000.0
20260505095527 39 0.0 0.0 0.00 0.26 0.00 96 1000.0
20260505094530 39 69 0.0 1.7 0.00 0.26 0.00 96 1000.3
20260505093516 38 0.0 0.0 0.00 0.26 0.00 96 1000.4
20260505092519 38 113 0.9 2.6 0.00 0.26 0.00 96 1000.4
20260505091523 38 109 0.9 2.6 0.00 0.26 0.00 96 1000.4
20260505090547 39 121 0.9 1.7 0.00 0.26 0.00 96 1000.4
20260505085530 38 7 1.7 2.6 0.00 0.26 0.00 95 1000.6
20260505084536 38 0.0 0.0 0.00 0.26 0.00 95 1000.6
20260505083520 39 0.0 0.0 0.00 0.26 0.00 95 1000.6
20260505082523 39 0.0 0.0 0.00 0.26 0.00 95 1000.6
20260505081527 39 308 0.9 1.7 0.00 0.26 0.00 95 1000.7
20260505080530 40 0.0 0.0 0.00 0.26 0.00 95 1001.0
20260505075516 40 189 0.9 1.7 0.00 0.26 0.00 94 1001.2
20260505074519 40 45 0.9 1.7 0.00 0.26 0.00 94 1001.0
20260505073523 40 0.0 0.0 0.00 0.26 0.00 94 1000.9
20260505072521 41 0.0 0.0 0.00 0.26 0.00 94 1000.8
20260505071519 40 72 0.9 2.6 0.00 0.26 0.00 93 1001.0
20260505070516 41 0.0 0.0 0.00 0.26 0.00 93 1001.1
20260505065540 41 0.0 0.0 0.00 0.26 0.00 93 1001.1
20260505064524 41 0.0 0.0 0.00 0.26 0.00 93 1001.3
20260505063527 42 0.0 0.0 0.00 0.26 0.00 93 1001.4
20260505062531 42 129 1.7 3.5 0.00 0.26 0.00 92 1001.5
20260505061516 42 103 0.9 2.6 0.00 0.26 0.00 92 1001.4
20260505060540 43 120 1.7 3.5 0.00 0.26 0.00 92 1001.9
20260505055544 42 0.0 0.0 0.00 0.26 0.00 91 1002.0
20260505054527 43 0.0 0.0 0.00 0.26 0.00 91 1002.0
20260505053531 44 0.0 0.0 0.00 0.26 0.00 91 1002.1
20260505052537 44 122 0.9 1.7 0.00 0.26 0.00 90 1002.2
20260505051521 44 104 0.9 2.6 0.00 0.26 0.00 90 1002.2
20260505050544 45 101 0.0 1.7 0.00 0.26 0.00 90 1002.4
20260505041524 45 88 2.6 3.5 0.00 0.26 0.00 89 1002.8
20260505040528 45 105 2.6 3.5 0.00 0.26 0.00 89 1002.8
20260505035532 44 93 1.7 2.6 0.00 0.26 0.00 89 1002.9
20260505034517 44 87 0.0 1.7 0.00 0.26 0.00 89 1003.1
20260505033521 44 73 1.7 1.7 0.00 0.26 0.00 89 1003.1
20260505032525 44 0.0 0.0 0.00 0.26 0.00 88 1003.1
20260505031522 44 105 0.9 1.7 0.00 0.26 0.00 88 1003.1
20260505030540 43 65 0.9 3.5 0.00 0.26 0.00 88 1003.0
20260505025518 43 94 0.0 1.7 0.00 0.26 0.00 88 1003.4
20260505024515 43 0.0 0.0 0.00 0.26 0.00 88 1003.4
20260505023525 43 0.0 0.0 0.00 0.26 0.00 87 1003.6
20260505022528 43 0.0 0.0 0.00 0.26 0.00 87 1003.7
20260505021532 43 113 0.0 1.7 0.00 0.26 0.00 87 1003.5
20260505020518 43 56 0.0 1.7 0.00 0.26 0.00 86 1003.7
20260505015521 42 0.0 0.0 0.00 0.26 0.00 85 1003.3
20260505014525 43 0.0 0.0 0.00 0.26 0.00 85 1003.3
20260505013549 43 0.0 0.0 0.00 0.26 0.00 84 1003.6
20260505012552 43 0.0 0.0 0.00 0.26 0.00 83 1004.0
20260505011518 43 0.0 0.0 0.00 0.26 0.00 82 1004.0
20260505010522 43 0.0 0.0 0.00 0.26 0.00 82 1004.0
20260505005525 43 0.0 0.0 0.00 0.26 0.00 81 1003.9
20260505004529 44 0.0 0.0 0.00 0.26 0.00 78 1003.4
20260505003533 45 0.0 0.0 0.00 0.26 0.00 77 1003.3
20260505002518 46 0.0 0.0 0.00 0.26 0.00 77 1003.3
20260505001522 47 0.0 0.0 0.00 0.26 0.00 75 1003.7
20260505000525 48 0.0 0.0 0.00 0.26 0.00 75 1003.5
20260504235529 50 0.0 0.0 0.00 0.26 0.00 73 1003.6
20260504234515 51 0.0 0.0 0.00 0.26 0.00 72 1003.1
20260504233518 52 264 1.7 1.7 0.00 0.26 0.00 71 1003.1
20260504232522 52 284 2.6 3.5 0.00 0.26 0.00 71 1003.1
20260504231526 52 271 2.6 3.5 0.00 0.26 0.00 71 1003.3
20260504230523 52 268 3.5 4.3 0.00 0.26 0.00 70 1002.7
20260504225515 53 258 3.5 5.2 0.00 0.26 0.26 70 1003.2
20260504224518 54 265 3.5 5.2 0.00 0.26 0.26 70 1003.0
20260504223556 55 273 3.5 4.3 0.00 0.26 0.26 70 1003.1
20260504222546 54 263 2.6 5.2 0.00 0.26 0.26 70 1003.1
20260504221529 55 271 3.5 4.3 0.00 0.26 0.26 70 1003.1
20260504220515 55 217 4.3 6.1 0.00 0.26 0.26 71 1002.8
20260504215519 54 218 4.3 6.1 0.00 0.26 0.26 72 1003.0
20260504214522 54 261 4.3 6.1 0.00 0.26 0.26 72 1002.8
20260504213526 54 291 3.5 6.1 0.00 0.26 0.26 72 1003.0
20260504212530 54 271 3.5 4.3 0.00 0.26 0.26 73 1003.1